This is the latest recevied weather packets stored in our database for station/object K6POO-1. If no packets are shown the sender has not sent any weather packets the latest 10 day(s).
| Time | Temp. | Humidity | Pressure | Rain* | Wind** | Luminosity | Snow |
|---|---|---|---|---|---|---|---|
| 1788569545 | 19.44° C | 65% | 1014.1 hPa | 0 mm | - | 114 W/m² | - |
| 1788569244 | 19.44° C | 62% | 1014.3 hPa | 0 mm | - | 130 W/m² | - |
| 1788568940 | 20° C | 63% | 1014.1 hPa | 0 mm | - | 146 W/m² | - |
| 1788568640 | 19.44° C | 63% | 1014.2 hPa | 0 mm | - | 162 W/m² | - |
| 1788568336 | 19.44° C | 64% | 1014.2 hPa | 0 mm | - | 176 W/m² | - |
| 1788568031 | 19.44° C | 60% | 1014.2 hPa | 0 mm | - | 194 W/m² | - |
| 1788567731 | 20° C | 61% | 1014.2 hPa | 0 mm | - | 213 W/m² | - |
| 1788567426 | 20° C | 60% | 1013.9 hPa | 0 mm | - | 233 W/m² | - |
| 1788567126 | 20° C | 59% | 1014.2 hPa | 0 mm | - | 254 W/m² | - |
| 1788566822 | 20° C | 59% | 1014.1 hPa | 0 mm | - | 275 W/m² | - |
| 1788566517 | 20° C | 60% | 1014.2 hPa | 0 mm | - | 298 W/m² | - |
| 1788566216 | 20° C | 61% | 1014.1 hPa | 0 mm | - | 316 W/m² | - |
| 1788565916 | 19.44° C | 62% | 1014.3 hPa | 0 mm | - | 328 W/m² | - |
| 1788565611 | 20° C | 62% | 1014.3 hPa | 0 mm | - | 337 W/m² | - |
| 1788565307 | 20° C | 60% | 1014.3 hPa | 0 mm | - | 354 W/m² | - |
| 1788565002 | 20° C | 62% | 1014.4 hPa | 0 mm | - | 370 W/m² | - |
| 1788564698 | 20° C | 61% | 1014.3 hPa | 0 mm | - | 385 W/m² | - |
| 1788564395 | 20° C | 64% | 1014.4 hPa | 0 mm | - | 399 W/m² | - |
| 1788564091 | 20° C | 64% | 1014.5 hPa | 0 mm | - | 414 W/m² | - |
| 1788563787 | 20° C | 64% | 1014.6 hPa | 0 mm | - | 437 W/m² | - |
| 1788563487 | 19.44° C | 64% | 1014.5 hPa | 0 mm | - | 453 W/m² | - |
| 1788563180 | 19.44° C | 64% | 1014.5 hPa | 0 mm | - | 479 W/m² | - |
| 1788562876 | 19.44° C | 63% | 1014.6 hPa | 0 mm | - | 493 W/m² | - |
| 1788562573 | 20° C | 63% | 1014.5 hPa | 0 mm | - | 509 W/m² | - |
| 1788562268 | 20° C | 66% | 1014.5 hPa | 0 mm | - | 522 W/m² | - |
* Rain latest hour (hover to see other rain measurements)
** Current wind speed in m/s (hover to see current wind gust speed)